Regional Weather Roundup
Issued by NWS

Home | Current Version | Previous Version | Text Only | Print | Product List | Glossary Off
Versions: 1 2 3 4 5 6 7 8 9 10 11 12 13 14 15 16 17 18 19 20 21 22 23 24 25 26 27 28 29 30 31 32 33 34 35 36 37 38 39 40 41 42 43 44 45 46 47 48 49 50

000
ASUS43 KIND 272209
RWRIN

WEATHER ROUNDUP FOR INDIANA
NATIONAL WEATHER SERVICE INDIANAPOLIS IN
600 PM EDT TUE SEP 27 2016

NOTE: "FAIR" INDICATES FEW OR NO CLOUDS BELOW 12,000 FEET WITH NO
SIGNIFICANT WEATHER AND/OR OBSTRUCTIONS TO VISIBILITY.

* - STATION DOES NOT REPORT WEATHER SUCH AS PRECIPITATION OR FOG.

+ - STATION NOT QUALITY CONTROLLED BY THE NATIONAL WEATHER SERVICE.
    USE DATA WITH CAUTION...ESPECIALLY DEWPOINT AND RELATIVE
    HUMIDITY OBSERVATIONS.

INZ001>003-010>013-019-020-272300-
NORTHWEST INDIANA

CITY           SKY/WX    TMP DP  RH WIND       PRES   REMARKS
GARY /AIRPORT/ PTSUNNY   72  28  20 W23       29.75S
KNOX *+        SUNNY    N/A N/A N/A W16G23    29.75S
LA PORTE +     MOSUNNY   71  33  24 W10G20    29.76S
MICHIGAN CITY+ MOSUNNY   68  39  34 MISG      29.76S
MONTICELLO +   SUNNY     73  15  11 W18G24    29.77S
RENSSELAER +   SUNNY     73  19  13 W13G22    29.76S
VALPARAISO     CLOUDY    67  34  29 W9        29.76S

$$

LMZ046-743>745-272300-
SOUTHERN LAKE MICHIGAN

STATION/POSITION TIME  TEMP    WIND        PRES    WAVE
                       AIR SEA DIR/SP/G            HT
                 (UTC) (F)     (DEG/KT/KT) (MB)    (FT)
BURNS HARBOR     2203   68     270/ 15/ 23 1007.8R
MICHIGAN CITY    2100   67     240/ 21/ 23   N/A
5NW MICH CITY    2200   68 67  280/ 16/ 19   N/A     5

$$

INZ004-005-014>016-021>024-272300-
NORTH CENTRAL INDIANA

CITY           SKY/WX    TMP DP  RH WIND       PRES   REMARKS
ELKHART        SUNNY    N/A N/A N/A W14       29.76R
GOSHEN         LGT RAIN  68  31  25 W21G31    29.75S
LOGANSPORT +   SUNNY     72  32  23 W20G28    29.78S
PERU/GRISSOM   SUNNY     72  31  22 W21G29    29.76S
ROCHESTER +    SUNNY     73  30  20 W15       29.76R
SOUTH BEND     MOSUNNY   66  37  34 NW13      29.76R
WARSAW +       SUNNY     68  23  18 W14G20    29.75S

$$

INZ006>009-017-018-025>027-272300-
NORTHEAST INDIANA

CITY           SKY/WX    TMP DP  RH WIND       PRES   REMARKS
ANGOLA *+        N/A     70  63  78 W15       29.75S
AUBURN +       SUNNY     70  30  23 SW8G16    29.76S
FORT WAYNE     MOSUNNY   73  28  18 W20G26    29.76S
HUNTINGTON +   SUNNY     71  29  21 W14G25    29.76S
KENDALLVILLE + SUNNY     69  31  24 W15G24    29.76S

$$

INZ028-029-035-036-043>045-051>053-272300-
WEST CENTRAL INDIANA

CITY           SKY/WX    TMP DP  RH WIND       PRES   REMARKS
CRAWFORDSVL +  SUNNY     72  39  29 W13G22    29.80F
GREENCASTLE +  SUNNY     72  46  40 SW3       29.82F
LAFAYETTE      SUNNY     72  36  26 W14G23    29.77F
TERRE HAUTE    SUNNY     75  43  31 SW14G20   29.82F

$$

INZ030>032-037>040-046>048-054>057-064-065-272300-
CENTRAL INDIANA

CITY           SKY/WX    TMP DP  RH WIND       PRES   REMARKS
COLUMBUS       SUNNY     73  48  40 SW14G23   29.84F
FISHERS *+     SUNNY     72  46  40 SW13G18   29.81
FRANKFORT +    SUNNY     76  34  22 W17G24    29.81S
GREENWOOD *+   SUNNY     75  45  33 W14G22    29.83S
INDIANAPOLIS   MOSUNNY   73  40  30 SW18G28   29.81F
-EAGLE CREEK   SUNNY     74  37  26 W12G21    29.80F
MARION +       SUNNY     73  31  20 W17G25    29.79S
MT COMFORT *+  SUNNY     73  43  33 SW12G22   29.82S
SHELBYVILLE    MOSUNNY   73  45  36 W14G21    29.82F
ZIONSVILLE +   SUNNY     72  39  30 W12G23    29.81S

$$

INZ033-034-041-042-049-050-058-059-272300-
EAST CENTRAL INDIANA

CITY           SKY/WX    TMP DP  RH WIND       PRES   REMARKS
MUNCIE         SUNNY     75  35  23 W15G28    29.79S

$$

INZ060-061-067>069-081>083-085>088-272300-
SOUTHWEST INDIANA

CITY           SKY/WX    TMP DP  RH WIND       PRES   REMARKS
EVANSVILLE     SUNNY     77  47  34 SW16      29.88F
HUNTINGBURG *+   N/A     75  46  35 SW16      29.87F
WASHINGTON +   SUNNY     76  51  41 MISG      29.85S

$$

INZ062-063-066-070>080-084-089>092-272300-
SOUTH CENTRAL AND SOUTHEAST INDIANA

CITY           SKY/WX    TMP DP  RH WIND       PRES   REMARKS
BEDFORD +      SUNNY    N/A N/A N/A SW10G17   29.85F
BLOOMINGTON    SUNNY     75  47  36 W7        29.84F
MADISON *+     SUNNY     73  41  31 SW12G18   29.88F
NORTH VERNON + MOSUNNY   73  52  46 SW13      29.86F
SEYMOUR +      MOSUNNY   77  48  36 SW16G23   29.85F

$$





USA.gov is the U.S. government's official web portal to all federal, state and local government web resources and services.